Location: Eboldshausen
(51.7766°N, 10.0050°E)
Time: 06:55:47
(UTC+00:00)

Tsikada Rocket - Pass Details

Date: 15 November 2025
Orbit: 957 x 1008 km, 82.9° (Epoch: 10 December)

Event Time Altitude Azimuth Distance (km) Brightness Sun altitude
Rises 16:48:30 0° 348° (NNW) 3,753 7.0 -12.1°
Reaches altitude 10° 16:51:03 10° 347° (NNW) 2,798 6.4 -12.5°
Maximum altitude 16:57:28 76° 264° (W) 1,040 4.3 -13.5°
Drops below altitude 10° 17:03:49 10° 180° (S) 2,759 6.5 -14.4°
Sets 17:06:19 0° 179° (S) 3,698 7.2 -14.8°
